Showing default

QIANFAN-32, 61565

Orbit data source: Space-Track

QIANFAN-32, 61565 is a Chinese payload satellite in LEO that was launched on Tue, 15 Oct 2024 UTC via a CHANG ZHENG 6A launch vehicle from the Taiyaun Space Center, China (TSC). Payload-class satellites include a variety of spacecraft equipped with specific instruments for various scientific and technological missions. These include communications satellites like Starlink; space stations such as the ISS; scientific satellites like the Hubble; Earth observation satellites from companies like Planet Labs, Umbra, and HawkEye 360; GPS; miniature CubeSats for education and research; and military/defense satellites.

Loading next visibility...
Identifier
61565, 2024-185P
Orbit
LEO
Country
Flag of CNCN / PRC
Related business
Manufacturer
GESIH/SECM
Mission
Operational Commercial Communications
Bus & Motor
QIANFAN, Unknown motor
Mass
267 kg wet, ~267 kg dry
Launch date (UTC)
2024-10-15 (2 years ago)
Launch vehicle
CHANG ZHENG 6A
Launch site
Taiyaun Space Center, China (TSC)
Object type
Payload
Rocket body
Debris
Shape & HBR
Box + 1 Pan, 5.0 m
Radar Cross Section
13.200 m², Large (>1 m²)

Expand to show TLE details & history
Last TLE update: 12 hours ago

TLE from 12 hours ago
0 QIANFAN-32
1 61565U 24185P   26197.83596683  .00000108  00000-0  14884-3 0  9993
2 61565  88.9834  58.7827 0010257 151.1371 209.0350 13.50792791 97218
Epoch: 2026-07-16T20:03Z
TLE epoch observation values (Epoch: 2026-07-16T20:03:47.534Z)
Latitude
0.00006°
Longitude
-176.83707°
Altitude
1,078.978 km
Speed
7.309 km/s
True Right ascension
03h 55m 07s
True Declination
0° 00' 00"
Sunlit
Object was in daylight at epoch
Visualization orbit readout
Latitude
Unknown
Longitude
Unknown
Altitude
Unknown
Speed
Unknown
Apparent Right ascension
Unknown
Apparent Declination
Unknown
Sunlit
N/A
Visualization observer readout
Local Sidereal Time
20:52:05
Azimuth
Unknown
Elevation
Unknown
Doppler factor
Unknown
Orbital elements
Apogee altitude
1,074.03 km
Perigee altitude
1,058.759 km
Semi-major axis
7,444.532 km
Eccentricity
0.00103
Inclination
88.9834°
RAAN
58.7827°
Arg. of periapsis
151.1371°
True anomaly
208.97802°
Mean anomaly
209.035°
Eccentric anomaly
209.0065°
Mean motion
3.37899 °/min
Orbital period
106.54 mins
BSTAR
0.00014884
Loading maneuver chart data...
Computing Atmospheric mass density...
Loading historical data...
Loading historical data...
Loading historical data...
Loading historical data...
Loading historical data...
Loading historical data...
Loading historical data...

Documentation

Showing up to 5 results
|